Location: *
(53.4003°S, 165.3236°W)
Time: 02:42:04
(UTC+00:00)

Cosmos 1459 Rocket - Pass Details

Date: 11 December 2023
Orbit: 937 x 998 km, 83.0° (Epoch: 24 February)

Event Time Altitude Azimuth Distance (km) Brightness Sun altitude
Rises 12:29:00 0° 193° (SSW) 3,763 8.0 -10.9°
Reaches altitude 10° 12:31:37 10° 198° (SSW) 2,806 7.2 -10.8°
Maximum altitude 12:37:50 52° 271° (W) 1,233 4.4 -10.4°
Enters shadow 12:43:31 12° 344° (NNW) 2,602 5.6 -10.0°
